KC7NGC-B Weather Reports


time (UTC)temp
F
wind
direction
speed
knots
gust
knots
rain 1hr
in
rain 24hr
in
rain mn
in
humidity
%
barometer
mb
20260510103123 57 299 5.2 6.1 0.00 0.00 0.00 49 1016.6
20260510102120 56 301 5.2 6.1 0.00 0.00 0.00 50 1016.5
20260510101136 56 310 3.5 4.3 0.00 0.00 0.00 50 1016.6
20260510100134 57 338 2.6 3.5 0.00 0.00 0.00 49 1016.6
20260510095128 57 327 0.9 1.7 0.00 0.00 0.00 50 1016.4
20260510094124 57 357 2.6 3.5 0.00 0.00 0.00 51 1016.7
20260510093120 56 294 0.9 1.7 0.00 0.00 0.00 53 1016.7
20260510092116 57 0.0 0.0 0.00 0.00 0.00 52 1016.8
20260510091133 57 329 0.0 0.9 0.00 0.00 0.00 53 1017.0
20260510090129 57 75 0.9 1.7 0.00 0.00 0.00 53 1016.8
20260510085125 58 290 1.7 1.7 0.00 0.00 0.00 52 1016.9
20260510084121 59 298 3.5 3.5 0.00 0.00 0.00 49 1017.1
20260510083118 58 318 2.6 2.6 0.00 0.00 0.00 50 1017.0
20260510082134 58 326 2.6 3.5 0.00 0.00 0.00 50 1017.1
20260510081130 60 340 2.6 2.6 0.00 0.00 0.00 46 1017.2
20260510080126 59 274 1.7 1.7 0.00 0.00 0.00 46 1017.2
20260510075122 61 257 0.9 1.7 0.00 0.00 0.00 45 1017.1
20260510074139 60 232 0.9 1.7 0.00 0.00 0.00 46 1017.4
20260510073155 61 251 1.7 1.7 0.00 0.00 0.00 44 1017.5
20260510072131 60 232 1.7 1.7 0.00 0.00 0.00 45 1017.3
20260510071150 61 220 0.9 1.7 0.00 0.00 0.00 43 1017.4
20260510070124 61 249 1.7 1.7 0.00 0.00 0.00 43 1017.5
20260510065120 62 245 1.7 1.7 0.00 0.00 0.00 42 1017.5
20260510064120 62 244 1.7 1.7 0.00 0.00 0.00 42 1017.4
20260510063152 62 254 0.9 1.7 0.00 0.00 0.00 41 1017.3
20260510062128 62 229 1.7 1.7 0.00 0.00 0.00 43 1017.6
20260510061124 63 259 0.9 1.7 0.00 0.00 0.00 40 1017.3
20260510060120 63 260 0.9 0.9 0.00 0.00 0.00 40 1017.3
20260510055316 63 258 0.9 1.7 0.00 0.00 0.00 41 1017.5
20260510053831 63 274 0.9 1.7 0.00 0.00 0.00 42 1017.7
20260510053533 63 260 0.9 1.7 0.00 0.00 0.00 42 1017.7
20260510053210 63 259 1.7 1.7 0.00 0.00 0.00 44 1017.7
20260510052128 64 254 1.7 2.6 0.00 0.00 0.00 43 1017.5
20260510041634 66 224 0.9 1.7 0.00 0.00 0.00 40 1018.1
20260510040701 66 220 0.9 1.7 0.00 0.00 0.00 40 1018.0
20260510035624 67 222 0.9 1.7 0.00 0.00 0.00 39 1017.8
20260510034624 68 228 0.9 1.7 0.00 0.00 0.00 38 1017.9
20260510033623 69 225 0.9 1.7 0.00 0.00 0.00 36 1017.8
20260510032642 70 194 0.9 1.7 0.00 0.00 0.00 34 1017.9
20260510031656 70 163 1.7 2.6 0.00 0.00 0.00 33 1018.0
20260510030653 70 158 0.9 2.6 0.00 0.00 0.00 33 1018.0
20260510025635 71 124 1.7 2.6 0.00 0.00 0.00 32 1018.0
20260510024633 72 91 1.7 3.5 0.00 0.00 0.00 31 1017.6
20260510023627 72 0.0 1.7 0.00 0.00 0.00 30 1018.0
20260510022628 73 61 3.5 4.3 0.00 0.00 0.00 28 1017.8
20260510021648 73 55 2.6 3.5 0.00 0.00 0.00 29 1018.0
20260510020624 73 61 4.3 6.1 0.00 0.00 0.00 27 1018.1
20260510015643 74 46 2.6 4.3 0.00 0.00 0.00 28 1017.9
20260510014641 74 40 2.6 2.6 0.00 0.00 0.00 29 1018.3
20260510013636 74 67 3.5 5.2 0.00 0.00 0.00 28 1018.3
20260510012638 74 50 5.2 7.8 0.00 0.00 0.00 30 1018.2
20260510011716 74 61 2.6 5.2 0.00 0.00 0.00 30 1018.5
20260510010630 75 50 5.2 7.0 0.00 0.00 0.00 30 1018.6
20260510005632 75 59 6.1 11.3 0.00 0.00 0.00 30 1018.7
20260510004628 75 67 3.5 5.2 0.00 0.00 0.00 31 1018.7
20260510003622 75 79 2.6 5.2 0.00 0.00 0.00 30 1018.6
20260510002618 75 110 1.7 3.5 0.00 0.00 0.00 30 1018.8
20260510001640 76 44 5.2 8.7 0.00 0.00 0.00 30 1018.9
20260510000639 76 25 5.2 7.8 0.00 0.00 0.00 29 1018.9
20260509235632 76 64 5.2 7.8 0.00 0.00 0.00 28 1019.0
20260509234629 76 67 2.6 3.5 0.00 0.00 0.00 29 1019.0
20260509233651 75 57 2.6 4.3 0.00 0.00 0.00 29 1019.3
20260509232631 76 52 6.1 8.7 0.00 0.00 0.00 29 1019.3
20260509231621 75 94 2.6 4.3 0.00 0.00 0.00 31 1019.0
20260509230703 76 46 7.0 9.6 0.00 0.00 0.00 30 1019.4
20260509225617 75 54 7.8 9.6 0.00 0.00 0.00 31 1019.4
20260509224635 75 95 3.5 5.2 0.00 0.00 0.00 32 1019.7
20260509223634 74 181 1.7 2.6 0.00 0.00 0.00 31 1019.8
20260509222636 74 67 4.3 7.8 0.00 0.00 0.00 32 1019.8
20260509221655 75 71 2.6 3.5 0.00 0.00 0.00 32 1019.8
20260509220626 75 96 1.7 3.5 0.00 0.00 0.00 34 1020.1
20260509215624 75 49 4.3 5.2 0.00 0.00 0.00 32 1020.3
20260509214627 74 176 2.6 3.5 0.00 0.00 0.00 32 1020.3
20260509213622 76 37 4.3 7.0 0.00 0.00 0.00 32 1020.2
20260509212621 76 11 7.0 9.6 0.00 0.00 0.00 32 1020.2
20260509211642 75 21 3.5 7.8 0.00 0.00 0.00 31 1020.5
20260509210635 76 55 4.3 5.2 0.00 0.00 0.00 31 1020.7
20260509205637 75 147 2.6 4.3 0.00 0.00 0.00 33 1020.8
20260509204631 73 223 4.3 4.3 0.00 0.00 0.00 33 1020.8
20260509203625 74 125 3.5 6.1 0.00 0.00 0.00 32 1020.8
20260509202627 74 189 7.0 9.6 0.00 0.00 0.00 32 1021.1
20260509201644 73 169 1.7 3.5 0.00 0.00 0.00 32 1021.1
20260509200620 72 188 3.5 5.2 0.00 0.00 0.00 32 1021.3
20260509195641 72 129 2.6 2.6 0.00 0.00 0.00 33 1021.3
20260509194636 72 125 2.6 6.1 0.00 0.00 0.00 35 1021.3
20260509193632 72 99 3.5 6.1 0.00 0.00 0.00 34 1021.4
20260509192637 72 51 4.3 5.2 0.00 0.00 0.00 31 1021.7
20260509191649 71 340 3.5 6.1 0.00 0.00 0.00 32 1021.9
20260509190625 70 328 3.5 4.3 0.00 0.00 0.00 34 1021.8
20260509185635 70 164 4.3 6.1 0.00 0.00 0.00 34 1022.0
20260509184626 70 177 7.0 8.7 0.00 0.00 0.00 35 1022.1
20260509183640 70 181 2.6 3.5 0.00 0.00 0.00 35 1022.2
20260509182641 69 185 0.9 2.6 0.00 0.00 0.00 37 1022.2
20260509181633 69 335 1.7 2.6 0.00 0.00 0.00 36 1022.5
20260509180635 68 242 0.9 1.7 0.00 0.00 0.00 41 1022.4
20260509175633 68 4 4.3 8.7 0.00 0.00 0.00 37 1022.4
20260509174632 67 249 2.6 5.2 0.00 0.00 0.00 41 1022.6
20260509173631 68 302 3.5 4.3 0.00 0.00 0.00 39 1022.5
20260509172624 67 51 1.7 2.6 0.00 0.00 0.00 43 1022.9
20260509171624 67 309 2.6 4.3 0.00 0.00 0.00 41 1022.6
20260509170623 65 210 1.7 3.5 0.00 0.00 0.00 43 1022.9
20260509165641 64 219 0.0 1.7 0.00 0.00 0.00 43 1022.8
20260509164634 64 183 3.5 6.1 0.00 0.00 0.00 46 1022.7
20260509163632 65 175 2.6 3.5 0.00 0.00 0.00 45 1022.7
20260509162632 63 200 1.7 2.6 0.00 0.00 0.00 45 1023.0
20260509161631 63 264 0.9 2.6 0.00 0.00 0.00 46 1022.8
20260509160628 63 3 0.0 1.7 0.00 0.00 0.00 45 1023.0
20260509155628 63 9 2.6 4.3 0.00 0.00 0.00 48 1022.9
20260509154620 62 325 2.6 3.5 0.00 0.00 0.00 48 1023.0
20260509153622 62 10 2.6 3.5 0.00 0.00 0.00 50 1023.0
20260509152640 63 44 0.9 1.7 0.00 0.00 0.00 48 1023.0
20260509151658 62 268 0.9 2.6 0.00 0.00 0.00 49 1022.9
20260509150636 61 226 0.9 1.7 0.00 0.00 0.00 50 1022.9
20260509145632 61 209 2.6 3.5 0.00 0.00 0.00 54 1022.8
20260509144630 59 354 1.7 3.5 0.00 0.00 0.00 55 1022.8
20260509143648 58 338 2.6 3.5 0.00 0.00 0.00 58 1022.7
20260509142623 57 15 2.6 3.5 0.00 0.00 0.00 59 1022.5
20260509141622 56 5 3.5 3.5 0.00 0.00 0.00 60 1022.6
20260509140618 55 339 2.6 3.5 0.00 0.00 0.00 62 1022.6
20260509135639 54 357 1.7 2.6 0.00 0.00 0.00 66 1022.4
20260509134633 53 297 0.9 1.7 0.00 0.00 0.00 68 1022.5
20260509133657 52 251 0.0 0.9 0.00 0.00 0.00 69 1022.2
20260509132653 52 231 0.0 0.9 0.00 0.00 0.00 66 1022.1
20260509131648 53 0.0 0.0 0.00 0.00 0.00 65 1022.2
20260509130625 52 311 0.9 1.7 0.00 0.00 0.00 65 1022.1
20260509125625 52 336 1.7 2.6 0.00 0.00 0.00 65 1022.2
20260509124620 51 58 0.0 0.9 0.00 0.00 0.00 68 1022.0
20260509123623 51 346 1.7 3.5 0.00 0.00 0.00 69 1022.0
20260509122641 50 257 1.7 2.6 0.00 0.00 0.00 70 1021.9
20260509121656 54 360 4.3 6.1 0.00 0.00 0.00 62 1022.3
20260509120631 54 265 2.6 5.2 0.00 0.00 0.00 60 1021.9
20260509115632 54 251 2.6 5.2 0.00 0.00 0.00 60 1022.0
20260509114627 54 233 1.7 3.5 0.00 0.00 0.00 61 1022.0
20260509113648 54 258 1.7 2.6 0.00 0.00 0.00 61 1021.8
20260509112625 52 75 0.9 1.7 0.00 0.00 0.00 64 1022.0
20260509111620 55 212 1.7 3.5 0.00 0.00 0.00 58 1021.8
20260509110618 52 201 0.9 1.7 0.00 0.00 0.00 64 1021.9
20260509105633 52 0.0 0.9 0.00 0.00 0.00 63 1022.0
20260509104635 55 225 1.7 2.6 0.00 0.00 0.00 58 1021.8
20260509103632 56 155 1.7 1.7 0.00 0.00 0.00 56 1021.7